Current Conditions
Clear
Conditions



Pressure
29.91 (inHG) - 1012.87 (mb)
Visibility

10.0 (miles) - 16.1 (km)
Temperature
66  °F
Temperature
50  °F
Dewpoint
56  %
 Humidity
Wind Speed
3  mph
3  kts
5  km/h
1.3  m/s
Wind Direction
N
45°
E
90°
135°
S
180°
225°
W
270°
315°
Calm

Due North
Airport Data
KAVP
Wilkes Barre Scranton International Airport
Metar :KAVP 250454Z VRB03KT 10SM CLR 19/10 A2991 RMK AO2 SLP121 T01890100 402560167
Tue 25th June 00:54 am
Raw Metar Info
Raw METAR is the most common format in the world for the transmission of observational weather data. It is highly standardized through the International Civil Aviation Organization (ICAO), which allows it to be understood throughout most of the world.
API Info
Data Provided by
https://www.checkwx.com/weather/KAVP

Aviation Weather providing METAR, TAF, AIRMET, SIGMET and OUTLOOK Weather Reports
© Info
CSS/SVG/PHP scripts were developed by weather34 for use in the weather34 template © 2015-2024

Guide Info provided by Metar-Wikipedia